Regional Weather Roundup
Issued by NWS

Home | Current Version | Previous Version | Graphics & Text | Print | Product List | Glossary On
Versions: 1 2 3 4 5 6 7 8 9 10 11 12 13 14 15 16 17 18 19 20 21 22 23 24 25 26 27 28 29 30 31 32 33 34 35 36 37 38 39 40 41 42 43 44 45 46 47 48 49 50
000
ASUS45 KCYS 241010
RWRWY

WYOMING REGIONAL WEATHER ROUNDUP
NATIONAL WEATHER SERVICE CHEYENNE WY
400 AM MDT THU JUL 24 2014

NOTE:  "FAIR" INDICATES FEW OR NO CLOUDS BELOW 12,000 FEET
WITH NO SIGNIFICANT WEATHER AND/OR OBSTRUCTIONS TO VISIBILITY.

WYZ001-241100-
YELLOWSTONE NATIONAL PARK

CITY           SKY/WX    TMP DP  RH WIND       PRES   REMARKS
LK YELLOWSTONE   N/A     45  39  79 CALM      30.25S
W YELLOWSTONE  NOT AVBL

$$
WYZ002>013-054>058-071-098>099-241100-
NORTHERN WYOMING

CITY           SKY/WX    TMP DP  RH WIND       PRES   REMARKS
JACKSON        CLEAR     48  41  76 N5        30.14S
CODY           NOT AVBL
GREYBULL       MOCLDY    69  44  40 CALM      29.88F
WORLAND        MOCLDY    83  39  21 SE12      29.88F
SHERIDAN       MOCLDY    62  54  74 SW7       29.86R
BUFFALO        MOCLDY    84  36  18 SW32G43   29.94F
GILLETTE       MOCLDY    72  59  63 S9        29.91F
HULETT         FAIR      68  59  73 MISG      29.94
NEWCASTLE      FAIR      73  59  60 SE12G17   29.98

$$
WYZ014>020-022>026-101>103-241100-
CENTRAL WYOMING

CITY           SKY/WX    TMP DP  RH WIND       PRES   REMARKS
BIG PINEY      PTCLDY    54  47  77 N8        30.22F
PINEDALE       MOSUNNY   54  46  76 CALM      30.23F
DUBOIS         FAIR      59  36  41 W8        30.19F
LANDER         MOCLDY    79  38  22 S17       30.05R
RIVERTON       MOCLDY    78  39  24 S12       30.05F
CASPER         PTCLDY    77  39  25 SW15      30.05S
DOUGLAS        PTCLDY    67  46  47 N5        30.04F

$$
WYZ021-027>030-104>119-241100-
SOUTHERN WYOMING

CITY           SKY/WX    TMP DP  RH WIND       PRES   REMARKS
EVANSTON       PTCLDY    66  42  41 SW14      30.22S
KEMMERER       SUNNY     57  41  54 N3        30.23S
FORT BRIDGER   FAIR      71  38  30 SW13      30.24S
ROCK SPRINGS   MOCLDY    71  35  26 S7        30.21F
DIXON          FAIR      61  40  44 NE7       30.27F
RAWLINS        MOCLDY    72  37  28 W9        30.24S
SARATOGA       FAIR      70  41  35 SE10G20   30.28S
LARAMIE        MOCLDY    76  37  24 W17G28    30.28S
CHEYENNE       MOCLDY    62  48  60 SW12      30.19S
TORRINGTON     CLEAR     63  58  83 NE8       30.01S
PINE BLUFFS    FAIR      61  52  72 CALM      30.13S

$$



USA.gov is the U.S. government's official web portal to all federal, state and local government web resources and services.